This is the latest recevied weather packets stored in our database for station/object EA4BCR. If no packets are shown the sender has not sent any weather packets the latest 10 day(s).
| Time | Temp. | Humidity | Pressure | Rain* | Wind** | Luminosity | Snow |
|---|---|---|---|---|---|---|---|
| 1778062254 | 18.89° C | 37% | 1010.2 hPa | - | - | - | - |
| 1778061655 | 18.89° C | 36% | 1010.2 hPa | - | - | - | - |
| 1778061054 | 18.33° C | 41% | 1010.4 hPa | - | - | - | - |
| 1778060454 | 18.33° C | 40% | 1010.4 hPa | - | - | - | - |
| 1778059854 | 16.67° C | 43% | 1010.9 hPa | - | - | - | - |
| 1778059255 | 17.22° C | 41% | 1010.8 hPa | - | - | - | - |
| 1778058655 | 16.11° C | 45% | 1011.2 hPa | - | - | - | - |
| 1778058054 | 16.11° C | 43% | 1011.2 hPa | - | - | - | - |
| 1778057454 | 15.56° C | 48% | 1011.4 hPa | - | - | - | - |
| 1778056854 | 15.56° C | 45% | 1011.4 hPa | - | - | - | - |
| 1778056254 | 14.44° C | 57% | 1011.8 hPa | - | - | - | - |
| 1778055654 | 13.89° C | 57% | 1012 hPa | - | - | - | - |
| 1778055054 | 13.33° C | 61% | 1012.4 hPa | - | - | - | - |
| 1778054454 | 11.67° C | 67% | 1013.1 hPa | - | - | - | - |
| 1778053855 | 12.22° C | 69% | 1012.8 hPa | - | - | - | - |
| 1778053254 | 11.11° C | 73% | 1013.3 hPa | - | - | - | - |
| 1778052656 | 11.11° C | 74% | 1013.3 hPa | - | - | - | - |
| 1778052060 | 10.56° C | 75% | 1013.5 hPa | - | - | - | - |
| 1778051454 | 10.56° C | 76% | 1013.5 hPa | - | - | - | - |
| 1778050854 | 10° C | 79% | 1013.9 hPa | - | - | - | - |
| 1778050255 | 9.44° C | 79% | 1014.1 hPa | - | - | - | - |
| 1778049654 | 8.89° C | 83% | 1014.3 hPa | - | - | - | - |
| 1778049055 | 8.33° C | 84% | 1014.5 hPa | - | - | - | - |
| 1778048454 | 7.78° C | 85% | 1014.6 hPa | - | - | - | - |
| 1778047856 | 7.78° C | 85% | 1014.8 hPa | - | - | - | - |
* Rain since midnight (hover to see other rain measurements)
** Current wind speed in m/s (hover to see current wind gust speed)